status,avgMeasuredTime,avgSpeed,extID,medianMeasuredTime,TIMESTAMP,vehicleCount,_id,REPORT_ID
OK,77,56,1033,77,2014-08-01T08:00:00,0,20747088,195896
OK,77,56,1033,77,2014-08-01T08:10:00,0,20747910,195896
OK,109,39,1033,109,2014-08-01T08:15:00,1,20748359,195896
OK,109,39,1033,109,2014-08-01T08:20:00,0,20748808,195896
OK,109,39,1033,109,2014-08-01T08:25:00,0,20749257,195896
OK,109,39,1033,109,2014-08-01T08:30:00,0,20749706,195896
OK,109,39,1033,109,2014-08-01T08:40:00,0,20750604,195896
OK,87,49,1033,87,2014-08-01T08:50:00,1,20751502,195896
OK,87,49,1033,87,2014-08-01T09:00:00,0,20752400,195896
OK,87,49,1033,87,2014-08-01T09:05:00,0,20752849,195896
OK,87,49,1033,87,2014-08-01T09:10:00,1,20753298,195896
OK,87,49,1033,87,2014-08-01T09:20:00,0,20754196,195896
OK,87,49,1033,87,2014-08-01T09:25:00,0,20754645,195896
OK,96,45,1033,96,2014-08-01T09:30:00,1,20755094,195896
OK,96,45,1033,96,2014-08-01T09:35:00,1,20755543,195896
OK,96,45,1033,96,2014-08-01T09:40:00,0,20755992,195896
OK,96,45,1033,96,2014-08-01T09:45:00,0,20756441,195896
OK,96,45,1033,96,2014-08-01T09:50:00,0,20756890,195896
OK,102,42,1033,102,2014-08-01T09:55:00,1,20757339,195896
OK,102,42,1033,102,2014-08-01T10:00:00,1,20757788,195896
OK,102,42,1033,102,2014-08-01T10:15:00,0,20759135,195896
OK,102,42,1033,102,2014-08-01T10:20:00,0,20759584,195896
OK,119,36,1033,119,2014-08-01T10:25:00,1,20760033,195896
OK,107,40,1033,107,2014-08-01T10:30:00,2,20760482,195896
OK,95,45,1033,95,2014-08-01T10:40:00,0,20761380,195896
OK,95,45,1033,95,2014-08-01T10:50:00,0,20762278,195896
OK,99,43,1033,99,2014-08-01T11:00:00,1,20763176,195896
OK,103,42,1033,103,2014-08-01T11:20:00,0,20764971,195896
OK,100,43,1033,100,2014-08-01T11:30:00,3,20765869,195896
OK,100,43,1033,100,2014-08-01T11:40:00,0,20766767,195896
OK,116,37,1033,116,2014-08-01T11:45:00,1,20767216,195896
OK,108,40,1033,108,2014-08-01T11:50:00,1,20767665,195896
OK,108,40,1033,108,2014-08-01T11:55:00,1,20768114,195896
OK,108,40,1033,108,2014-08-01T12:00:00,0,20768563,195896
OK,108,40,1033,108,2014-08-01T12:10:00,0,20769461,195896
OK,108,40,1033,108,2014-08-01T12:20:00,0,20770359,195896
OK,102,42,1033,102,2014-08-01T12:25:00,1,20770808,195896
OK,95,45,1033,95,2014-08-01T12:30:00,2,20771257,195896
OK,88,49,1033,88,2014-08-01T12:35:00,1,20771706,195896
OK,88,49,1033,88,2014-08-01T12:40:00,0,20772155,195896
OK,88,49,1033,88,2014-08-01T12:45:00,0,20772604,195896
OK,88,49,1033,88,2014-08-01T12:50:00,0,20773053,195896
OK,123,35,1033,123,2014-08-01T12:55:00,1,20773502,195896
OK,123,35,1033,123,2014-08-01T13:00:00,1,20773951,195896
OK,132,32,1033,132,2014-08-01T13:05:00,1,20774400,195896
OK,132,32,1033,132,2014-08-01T13:10:00,0,20774849,195896
OK,132,32,1033,132,2014-08-01T13:15:00,0,20775298,195896
OK,132,32,1033,132,2014-08-01T13:20:00,0,20775747,195896
OK,132,32,1033,132,2014-08-01T13:30:00,0,20776645,195896
OK,132,32,1033,132,2014-08-01T13:35:00,0,20777094,195896
OK,132,32,1033,132,2014-08-01T13:40:00,0,20777543,195896
OK,106,40,1033,106,2014-08-01T13:45:00,1,20777992,195896
OK,106,40,1033,106,2014-08-01T13:50:00,1,20778441,195896
OK,106,40,1033,106,2014-08-01T14:00:00,0,20779339,195896
OK,77,56,1033,77,2014-08-01T14:05:00,1,20779788,195896
OK,77,56,1033,77,2014-08-01T14:10:00,1,20780237,195896
OK,77,56,1033,77,2014-08-01T14:15:00,0,20780686,195896
OK,100,43,1033,100,2014-08-01T14:20:00,1,20781135,195896
OK,100,43,1033,100,2014-08-01T14:25:00,1,20781584,195896
OK,100,43,1033,100,2014-08-01T14:30:00,0,20782033,195896
OK,100,43,1033,100,2014-08-01T14:35:00,0,20782482,195896
OK,95,45,1033,95,2014-08-01T14:40:00,2,20782931,195896
OK,95,45,1033,95,2014-08-01T14:45:00,2,20783380,195896
OK,85,51,1033,85,2014-08-01T14:50:00,2,20783829,195896
OK,86,50,1033,86,2014-08-01T15:00:00,2,20784727,195896
OK,93,46,1033,93,2014-08-01T15:05:00,1,20785176,195896
OK,82,52,1033,82,2014-08-01T15:10:00,2,20785625,195896
OK,71,61,1033,71,2014-08-01T15:15:00,1,20786074,195896
OK,71,61,1033,71,2014-08-01T15:20:00,0,20786523,195896
OK,71,61,1033,71,2014-08-01T15:25:00,0,20786972,195896
OK,71,61,1033,71,2014-08-01T15:30:00,0,20787421,195896
OK,70,61,1033,70,2014-08-01T15:35:00,1,20787870,195896
OK,70,61,1033,70,2014-08-01T15:40:00,0,20788319,195896
OK,70,61,1033,70,2014-08-01T15:45:00,0,20788768,195896
OK,70,61,1033,70,2014-08-01T15:50:00,0,20789217,195896
OK,70,61,1033,70,2014-08-01T15:55:00,0,20789666,195896
OK,70,61,1033,70,2014-08-01T16:00:00,0,20790115,195896
OK,70,61,1033,70,2014-08-01T16:05:00,0,20790564,195896
OK,90,48,1033,90,2014-08-01T16:10:00,1,20791013,195896
OK,90,48,1033,90,2014-08-01T16:15:00,1,20791462,195896
OK,90,48,1033,90,2014-08-01T16:20:00,0,20791911,195896
OK,90,48,1033,90,2014-08-01T16:25:00,0,20792360,195896
OK,90,48,1033,90,2014-08-01T16:30:00,0,20792809,195896
OK,90,48,1033,90,2014-08-01T16:35:00,0,20793258,195896
OK,90,48,1033,90,2014-08-01T16:40:00,0,20793707,195896
OK,90,48,1033,90,2014-08-01T16:45:00,0,20794156,195896
OK,90,48,1033,90,2014-08-01T16:50:00,0,20794605,195896
OK,90,48,1033,90,2014-08-01T16:55:00,0,20795054,195896
OK,90,48,1033,90,2014-08-01T17:00:00,0,20795503,195896
OK,90,48,1033,90,2014-08-01T17:05:00,0,20795952,195896
OK,90,48,1033,90,2014-08-01T17:10:00,0,20796401,195896
OK,206,21,1033,206,2014-08-01T17:15:00,1,20796850,195896
OK,206,21,1033,206,2014-08-01T17:20:00,1,20797299,195896
OK,206,21,1033,206,2014-08-01T17:25:00,0,20797748,195896
OK,83,52,1033,83,2014-08-01T17:30:00,1,20798197,195896
OK,83,52,1033,83,2014-08-01T17:35:00,1,20798646,195896
OK,83,52,1033,83,2014-08-01T17:40:00,0,20799095,195896
OK,83,52,1033,83,2014-08-01T17:45:00,0,20799544,195896
OK,83,52,1033,83,2014-08-01T17:50:00,0,20799993,195896
OK,83,52,1033,83,2014-08-01T17:55:00,0,20800442,195896
OK,83,52,1033,83,2014-08-01T18:00:00,0,20800891,195896
OK,83,52,1033,83,2014-08-01T18:05:00,0,20801340,195896
OK,83,52,1033,83,2014-08-01T18:10:00,0,20801789,195896
OK,83,52,1033,83,2014-08-01T18:15:00,0,20802238,195896
OK,83,52,1033,83,2014-08-01T18:20:00,0,20802687,195896
OK,83,52,1033,83,2014-08-01T18:25:00,0,20803136,195896
OK,83,52,1033,83,2014-08-01T18:30:00,0,20803585,195896
OK,83,52,1033,83,2014-08-01T18:35:00,0,20804034,195896
OK,83,52,1033,83,2014-08-01T18:40:00,0,20804483,195896
OK,83,52,1033,83,2014-08-01T18:45:00,0,20804932,195896
OK,83,52,1033,83,2014-08-01T18:50:00,0,20805381,195896
OK,83,52,1033,83,2014-08-01T18:55:00,0,20805830,195896
OK,83,52,1033,83,2014-08-01T19:00:00,0,20806279,195896
OK,83,52,1033,83,2014-08-01T19:05:00,0,20806728,195896
OK,83,52,1033,83,2014-08-01T19:10:00,0,20807177,195896
OK,83,52,1033,83,2014-08-01T19:15:00,0,20807626,195896
OK,83,52,1033,83,2014-08-01T19:20:00,0,20808075,195896
OK,83,52,1033,83,2014-08-01T19:25:00,0,20808524,195896
OK,83,52,1033,83,2014-08-01T19:30:00,0,20808973,195896
OK,83,52,1033,83,2014-08-01T19:35:00,0,20809422,195896
OK,83,52,1033,83,2014-08-01T19:40:00,0,20809871,195896
OK,83,52,1033,83,2014-08-01T19:45:00,0,20810320,195896
OK,83,52,1033,83,2014-08-01T19:50:00,0,20810769,195896
OK,83,52,1033,83,2014-08-01T19:55:00,0,20811218,195896
OK,83,52,1033,83,2014-08-01T22:00:00,0,20816947,195896
OK,83,52,1033,83,2014-08-02T00:00:00,0,20823386,195896
OK,83,52,1033,83,2014-08-02T00:05:00,0,20823835,195896
OK,83,52,1033,83,2014-08-02T00:10:00,0,20824284,195896
OK,83,52,1033,83,2014-08-02T00:15:00,0,20824733,195896
OK,83,52,1033,83,2014-08-02T00:20:00,0,20825182,195896
OK,83,52,1033,83,2014-08-02T00:25:00,0,20825631,195896
OK,83,52,1033,83,2014-08-02T00:30:00,0,20826080,195896
OK,83,52,1033,83,2014-08-02T00:35:00,0,20826529,195896
OK,83,52,1033,83,2014-08-02T00:40:00,0,20826978,195896
OK,83,52,1033,83,2014-08-02T00:45:00,0,20827427,195896
OK,83,52,1033,83,2014-08-02T00:50:00,0,20827876,195896
OK,83,52,1033,83,2014-08-02T00:55:00,0,20828325,195896
OK,83,52,1033,83,2014-08-02T01:00:00,0,20828774,195896
OK,83,52,1033,83,2014-08-02T01:05:00,0,20829223,195896
OK,83,52,1033,83,2014-08-02T01:10:00,0,20829672,195896
OK,83,52,1033,83,2014-08-02T01:15:00,0,20830121,195896
OK,83,52,1033,83,2014-08-02T01:20:00,0,20830570,195896
OK,83,52,1033,83,2014-08-02T01:25:00,0,20831019,195896
OK,83,52,1033,83,2014-08-02T01:30:00,0,20831468,195896
OK,83,52,1033,83,2014-08-02T01:35:00,0,20831917,195896
OK,83,52,1033,83,2014-08-02T01:40:00,0,20832366,195896
OK,83,52,1033,83,2014-08-02T01:45:00,0,20832815,195896
OK,83,52,1033,83,2014-08-02T01:50:00,0,20833264,195896
OK,83,52,1033,83,2014-08-02T01:55:00,0,20833713,195896
OK,83,52,1033,83,2014-08-02T02:00:00,0,20834162,195896
OK,83,52,1033,83,2014-08-02T02:05:00,0,20834611,195896
OK,83,52,1033,83,2014-08-02T02:10:00,0,20835060,195896
OK,83,52,1033,83,2014-08-02T02:15:00,0,20835509,195896
OK,83,52,1033,83,2014-08-02T02:20:00,0,20835958,195896
OK,83,52,1033,83,2014-08-02T02:25:00,0,20836407,195896
OK,83,52,1033,83,2014-08-02T02:30:00,0,20836856,195896
OK,83,52,1033,83,2014-08-02T02:35:00,0,20837305,195896
OK,83,52,1033,83,2014-08-02T02:40:00,0,20837754,195896
OK,83,52,1033,83,2014-08-02T02:45:00,0,20838203,195896
OK,83,52,1033,83,2014-08-02T02:50:00,0,20838652,195896
OK,83,52,1033,83,2014-08-02T02:55:00,0,20839101,195896
OK,83,52,1033,83,2014-08-02T03:00:00,0,20839550,195896
OK,83,52,1033,83,2014-08-02T03:05:00,0,20839999,195896
OK,83,52,1033,83,2014-08-02T03:10:00,0,20840448,195896
OK,83,52,1033,83,2014-08-02T03:15:00,0,20840897,195896
OK,83,52,1033,83,2014-08-02T03:20:00,0,20841346,195896
OK,83,52,1033,83,2014-08-02T03:25:00,0,20841795,195896
OK,83,52,1033,83,2014-08-02T03:30:00,0,20842244,195896
OK,83,52,1033,83,2014-08-02T03:35:00,0,20842693,195896
OK,83,52,1033,83,2014-08-02T03:40:00,0,20843142,195896
OK,83,52,1033,83,2014-08-02T03:45:00,0,20843591,195896
OK,83,52,1033,83,2014-08-02T03:50:00,0,20844040,195896
OK,83,52,1033,83,2014-08-02T03:55:00,0,20844489,195896
OK,83,52,1033,83,2014-08-02T06:00:00,0,20851943,195896
OK,83,52,1033,83,2014-08-02T06:05:00,0,20852392,195896
OK,83,52,1033,83,2014-08-02T06:10:00,0,20852841,195896
OK,83,52,1033,83,2014-08-02T06:15:00,0,20853290,195896
OK,83,52,1033,83,2014-08-02T06:20:00,0,20853739,195896
OK,83,52,1033,83,2014-08-02T06:25:00,0,20854188,195896
OK,83,52,1033,83,2014-08-02T06:30:00,0,20854637,195896
OK,83,52,1033,83,2014-08-02T06:35:00,0,20855086,195896
OK,83,52,1033,83,2014-08-02T06:40:00,0,20855535,195896
OK,83,52,1033,83,2014-08-02T06:45:00,0,20855984,195896
OK,83,52,1033,83,2014-08-02T06:50:00,0,20856433,195896
OK,83,52,1033,83,2014-08-02T06:55:00,0,20856882,195896
OK,83,52,1033,83,2014-08-02T07:00:00,0,20857331,195896
OK,83,52,1033,83,2014-08-02T07:05:00,0,20857780,195896
OK,83,52,1033,83,2014-08-02T07:10:00,0,20858229,195896
OK,83,52,1033,83,2014-08-02T07:15:00,0,20858678,195896
OK,83,52,1033,83,2014-08-02T07:20:00,0,20859127,195896
OK,83,52,1033,83,2014-08-02T07:25:00,0,20859576,195896
OK,83,52,1033,83,2014-08-02T07:30:00,0,20860025,195896
OK,83,52,1033,83,2014-08-02T07:35:00,0,20860474,195896
OK,83,52,1033,83,2014-08-02T07:40:00,0,20860923,195896
OK,83,52,1033,83,2014-08-02T07:45:00,0,20861372,195896
OK,83,52,1033,83,2014-08-02T07:50:00,0,20861821,195896
OK,83,52,1033,83,2014-08-02T07:55:00,0,20862270,195896
OK,83,52,1033,83,2014-08-02T08:00:00,0,20862719,195896
OK,83,52,1033,83,2014-08-02T08:05:00,0,20863168,195896
OK,83,52,1033,83,2014-08-02T08:10:00,0,20863617,195896
OK,83,52,1033,83,2014-08-02T08:15:00,0,20864066,195896
OK,83,52,1033,83,2014-08-02T08:20:00,0,20864515,195896
OK,83,52,1033,83,2014-08-02T08:25:00,0,20864964,195896
OK,83,52,1033,83,2014-08-02T08:30:00,0,20865413,195896
OK,83,52,1033,83,2014-08-02T08:35:00,0,20865862,195896
OK,83,52,1033,83,2014-08-02T08:40:00,0,20866311,195896
OK,79,54,1033,79,2014-08-02T08:45:00,2,20866760,195896
OK,79,54,1033,79,2014-08-02T08:50:00,2,20867209,195896
OK,85,51,1033,85,2014-08-02T08:55:00,0,20867658,195896
OK,85,51,1033,85,2014-08-02T09:00:00,0,20868107,195896
OK,85,51,1033,85,2014-08-02T09:05:00,0,20868556,195896
OK,85,51,1033,85,2014-08-02T09:10:00,0,20869005,195896
OK,85,51,1033,85,2014-08-02T09:15:00,0,20869454,195896
OK,85,51,1033,85,2014-08-02T09:20:00,0,20869903,195896
OK,85,51,1033,85,2014-08-02T09:25:00,0,20870352,195896
OK,85,51,1033,85,2014-08-02T09:30:00,0,20870801,195896
OK,85,51,1033,85,2014-08-02T09:35:00,0,20871250,195896
OK,97,44,1033,97,2014-08-02T09:40:00,1,20871699,195896
OK,97,44,1033,97,2014-08-02T09:45:00,1,20872148,195896
OK,97,44,1033,97,2014-08-02T09:50:00,0,20872597,195896
OK,88,49,1033,88,2014-08-02T09:55:00,1,20873046,195896
OK,88,49,1033,88,2014-08-02T10:00:00,1,20873495,195896
OK,88,49,1033,88,2014-08-02T10:05:00,0,20873944,195896
OK,88,49,1033,88,2014-08-02T10:10:00,0,20874393,195896
OK,88,49,1033,88,2014-08-02T10:15:00,0,20874842,195896
OK,88,49,1033,88,2014-08-02T10:20:00,0,20875291,195896
OK,88,49,1033,88,2014-08-02T10:25:00,0,20875740,195896
OK,88,49,1033,88,2014-08-02T10:30:00,0,20876189,195896
OK,88,49,1033,88,2014-08-02T10:35:00,0,20876638,195896
OK,88,49,1033,88,2014-08-02T10:40:00,0,20877087,195896
OK,88,49,1033,88,2014-08-02T10:45:00,0,20877536,195896
OK,88,49,1033,88,2014-08-02T10:50:00,0,20877985,195896
OK,88,49,1033,88,2014-08-02T10:55:00,0,20878434,195896
OK,90,48,1033,90,2014-08-02T11:00:00,1,20878883,195896
OK,90,48,1033,90,2014-08-02T11:05:00,1,20879332,195896
OK,82,52,1033,82,2014-08-02T11:10:00,1,20879781,195896
OK,82,52,1033,82,2014-08-02T11:15:00,1,20880230,195896
OK,87,49,1033,87,2014-08-02T11:20:00,1,20880679,195896
OK,87,49,1033,87,2014-08-02T11:25:00,1,20881128,195896
OK,87,49,1033,87,2014-08-02T11:30:00,0,20881577,195896
OK,87,49,1033,87,2014-08-02T11:35:00,0,20882026,195896
OK,87,49,1033,87,2014-08-02T11:40:00,0,20882475,195896
OK,87,49,1033,87,2014-08-02T11:45:00,0,20882924,195896
OK,87,49,1033,87,2014-08-02T11:50:00,0,20883373,195896
OK,102,42,1033,102,2014-08-02T11:55:00,1,20883822,195896
OK,102,42,1033,102,2014-08-02T12:00:00,1,20884271,195896
OK,91,47,1033,91,2014-08-02T12:05:00,1,20884720,195896
OK,91,47,1033,91,2014-08-02T12:10:00,0,20885169,195896
OK,91,47,1033,91,2014-08-02T12:15:00,0,20885618,195896
OK,91,47,1033,91,2014-08-02T12:20:00,0,20886067,195896
OK,91,47,1033,91,2014-08-02T12:25:00,0,20886516,195896
OK,91,47,1033,91,2014-08-02T12:30:00,0,20886965,195896
OK,91,47,1033,91,2014-08-02T12:35:00,0,20887414,195896
OK,91,47,1033,91,2014-08-02T12:40:00,0,20887863,195896
OK,77,56,1033,77,2014-08-02T12:45:00,1,20888312,195896
OK,77,56,1033,77,2014-08-02T12:50:00,1,20888761,195896
OK,77,56,1033,77,2014-08-02T12:55:00,0,20889210,195896
OK,77,56,1033,77,2014-08-02T13:00:00,0,20889659,195896
OK,77,56,1033,77,2014-08-02T13:05:00,0,20890108,195896
OK,77,56,1033,77,2014-08-02T13:10:00,0,20890557,195896
OK,144,30,1033,144,2014-08-02T13:15:00,1,20891006,195896
OK,144,30,1033,144,2014-08-02T13:20:00,1,20891455,195896
OK,144,30,1033,144,2014-08-02T13:25:00,0,20891904,195896
OK,144,30,1033,144,2014-08-02T13:30:00,0,20892353,195896
OK,144,30,1033,144,2014-08-02T13:35:00,0,20892802,195896
OK,144,30,1033,144,2014-08-02T13:40:00,0,20893251,195896
OK,144,30,1033,144,2014-08-02T13:45:00,0,20893700,195896
OK,144,30,1033,144,2014-08-02T13:50:00,0,20894149,195896
OK,144,30,1033,144,2014-08-02T13:55:00,0,20894598,195896
OK,144,30,1033,144,2014-08-02T14:00:00,0,20895047,195896
OK,144,30,1033,144,2014-08-02T14:05:00,0,20895496,195896
OK,144,30,1033,144,2014-08-02T14:10:00,0,20895945,195896
OK,144,30,1033,144,2014-08-02T14:15:00,0,20896394,195896
OK,144,30,1033,144,2014-08-02T14:20:00,0,20896843,195896
OK,101,42,1033,101,2014-08-02T14:25:00,1,20897292,195896
OK,101,42,1033,101,2014-08-02T14:30:00,0,20897741,195896
OK,101,42,1033,101,2014-08-02T14:35:00,0,20898190,195896
OK,94,46,1033,94,2014-08-02T14:40:00,1,20898639,195896
OK,94,46,1033,94,2014-08-02T14:45:00,1,20899088,195896
OK,94,46,1033,94,2014-08-02T14:50:00,0,20899537,195896
OK,94,46,1033,94,2014-08-02T14:55:00,0,20899986,195896
OK,94,46,1033,94,2014-08-02T15:00:00,0,20900435,195896
OK,92,47,1033,92,2014-08-02T15:05:00,2,20900884,195896
OK,111,39,1033,111,2014-08-02T15:10:00,1,20901333,195896
OK,111,39,1033,111,2014-08-02T15:15:00,0,20901782,195896
OK,68,63,1033,68,2014-08-02T15:20:00,1,20902231,195896
OK,68,63,1033,68,2014-08-02T15:25:00,1,20902680,195896
OK,68,63,1033,68,2014-08-02T15:30:00,0,20903129,195896
OK,397,10,1033,397,2014-08-02T15:35:00,0,20903578,195896
OK,397,10,1033,397,2014-08-02T15:40:00,0,20904027,195896
OK,397,10,1033,397,2014-08-02T15:45:00,0,20904476,195896
OK,397,10,1033,397,2014-08-02T15:50:00,0,20904925,195896
OK,397,10,1033,397,2014-08-02T15:55:00,0,20905374,195896
OK,397,10,1033,397,2014-08-02T16:00:00,0,20905823,195896
OK,397,10,1033,397,2014-08-02T16:05:00,0,20906272,195896
OK,397,10,1033,397,2014-08-02T16:10:00,0,20906721,195896
OK,397,10,1033,397,2014-08-02T16:15:00,0,20907170,195896
OK,397,10,1033,397,2014-08-02T16:20:00,0,20907619,195896
OK,397,10,1033,397,2014-08-02T16:25:00,0,20908068,195896
OK,397,10,1033,397,2014-08-02T16:30:00,0,20908517,195896
OK,82,52,1033,82,2014-08-02T16:35:00,1,20908966,195896
OK,82,52,1033,82,2014-08-02T16:40:00,1,20909415,195896
OK,82,52,1033,82,2014-08-02T16:45:00,0,20909864,195896
OK,82,52,1033,82,2014-08-02T16:50:00,0,20910313,195896
OK,82,52,1033,82,2014-08-02T16:55:00,0,20910762,195896
OK,82,52,1033,82,2014-08-02T17:00:00,0,20911211,195896
OK,82,52,1033,82,2014-08-02T17:05:00,0,20911660,195896
OK,82,52,1033,82,2014-08-02T17:10:00,0,20912109,195896
OK,82,52,1033,82,2014-08-02T17:15:00,0,20912558,195896
OK,82,52,1033,82,2014-08-02T17:20:00,0,20913007,195896
OK,64,67,1033,64,2014-08-02T17:25:00,1,20913456,195896
OK,64,67,1033,64,2014-08-02T17:30:00,1,20913905,195896
OK,64,67,1033,64,2014-08-02T17:35:00,0,20914354,195896
OK,64,67,1033,64,2014-08-02T17:40:00,0,20914803,195896
OK,64,67,1033,64,2014-08-02T17:45:00,0,20915252,195896
OK,81,53,1033,81,2014-08-02T17:50:00,1,20915701,195896
OK,81,53,1033,81,2014-08-02T17:55:00,0,20916150,195896
OK,81,53,1033,81,2014-08-02T18:00:00,0,20916599,195896
OK,81,53,1033,81,2014-08-02T18:05:00,0,20917048,195896
OK,81,53,1033,81,2014-08-02T18:10:00,0,20917497,195896
OK,81,53,1033,81,2014-08-02T18:15:00,0,20917946,195896
OK,81,53,1033,81,2014-08-02T18:20:00,0,20918395,195896
OK,81,53,1033,81,2014-08-02T18:25:00,0,20918844,195896
OK,81,53,1033,81,2014-08-02T18:30:00,0,20919293,195896
OK,81,53,1033,81,2014-08-02T18:35:00,0,20919742,195896
OK,81,53,1033,81,2014-08-02T18:40:00,0,20920191,195896
OK,81,53,1033,81,2014-08-02T18:45:00,0,20920640,195896
OK,81,53,1033,81,2014-08-02T18:50:00,0,20921089,195896
OK,81,53,1033,81,2014-08-02T18:55:00,0,20921538,195896
OK,81,53,1033,81,2014-08-02T19:00:00,0,20921987,195896
OK,81,53,1033,81,2014-08-02T19:05:00,0,20922436,195896
OK,81,53,1033,81,2014-08-02T19:10:00,0,20922885,195896
OK,81,53,1033,81,2014-08-02T19:15:00,0,20923334,195896
OK,81,53,1033,81,2014-08-02T19:20:00,0,20923783,195896
OK,81,53,1033,81,2014-08-02T19:25:00,0,20924232,195896
OK,81,53,1033,81,2014-08-02T19:30:00,0,20924681,195896
OK,81,53,1033,81,2014-08-02T19:35:00,0,20925130,195896
OK,81,53,1033,81,2014-08-02T19:40:00,0,20925579,195896
OK,81,53,1033,81,2014-08-02T19:45:00,0,20926028,195896
OK,81,53,1033,81,2014-08-02T19:50:00,0,20926477,195896
OK,81,53,1033,81,2014-08-02T19:55:00,0,20926926,195896
OK,81,53,1033,81,2014-08-02T20:00:00,0,20927375,195896
OK,81,53,1033,81,2014-08-02T20:05:00,0,20927824,195896
OK,81,53,1033,81,2014-08-02T20:10:00,0,20928273,195896
OK,81,53,1033,81,2014-08-02T20:15:00,0,20928722,195896
OK,81,53,1033,81,2014-08-02T20:20:00,0,20929171,195896
OK,81,53,1033,81,2014-08-02T20:25:00,0,20929620,195896
OK,81,53,1033,81,2014-08-02T20:30:00,0,20930069,195896
OK,81,53,1033,81,2014-08-02T20:35:00,0,20930518,195896
OK,81,53,1033,81,2014-08-02T20:40:00,0,20930967,195896
OK,81,53,1033,81,2014-08-02T20:45:00,0,20931416,195896
OK,81,53,1033,81,2014-08-02T20:50:00,0,20931865,195896
OK,81,53,1033,81,2014-08-02T20:55:00,0,20932314,195896
OK,81,53,1033,81,2014-08-02T21:00:00,0,20932763,195896
OK,81,53,1033,81,2014-08-02T21:05:00,0,20933212,195896
OK,92,47,1033,92,2014-08-02T21:10:00,1,20933661,195896
OK,92,47,1033,92,2014-08-02T21:15:00,0,20934110,195896
OK,92,47,1033,92,2014-08-02T21:20:00,0,20934559,195896
OK,92,47,1033,92,2014-08-02T21:25:00,0,20935008,195896
OK,92,47,1033,92,2014-08-02T21:30:00,0,20935457,195896
OK,92,47,1033,92,2014-08-02T21:35:00,0,20935906,195896
OK,92,47,1033,92,2014-08-02T21:40:00,0,20936355,195896
OK,92,47,1033,92,2014-08-02T21:45:00,0,20936804,195896
OK,92,47,1033,92,2014-08-02T21:50:00,0,20937253,195896
OK,92,47,1033,92,2014-08-02T21:55:00,0,20937702,195896
OK,92,47,1033,92,2014-08-02T22:00:00,0,20938151,195896
OK,92,47,1033,92,2014-08-02T22:05:00,0,20938600,195896
OK,92,47,1033,92,2014-08-02T22:10:00,0,20939049,195896
OK,92,47,1033,92,2014-08-02T22:15:00,0,20939498,195896
OK,92,47,1033,92,2014-08-02T22:20:00,0,20939947,195896
OK,92,47,1033,92,2014-08-02T22:25:00,0,20940396,195896
OK,92,47,1033,92,2014-08-02T22:30:00,0,20940845,195896
OK,92,47,1033,92,2014-08-02T22:35:00,0,20941294,195896
OK,92,47,1033,92,2014-08-02T22:40:00,0,20941743,195896
OK,92,47,1033,92,2014-08-02T22:45:00,0,20942192,195896
OK,92,47,1033,92,2014-08-02T22:50:00,0,20942641,195896
OK,92,47,1033,92,2014-08-02T22:55:00,0,20943090,195896
OK,92,47,1033,92,2014-08-02T23:00:00,0,20943539,195896
OK,92,47,1033,92,2014-08-02T23:10:00,0,20943988,195896
OK,92,47,1033,92,2014-08-02T23:15:00,0,20944437,195896
OK,92,47,1033,92,2014-08-02T23:20:00,0,20944886,195896
OK,92,47,1033,92,2014-08-02T23:25:00,0,20945335,195896
OK,92,47,1033,92,2014-08-02T23:30:00,0,20945784,195896
OK,92,47,1033,92,2014-08-02T23:35:00,0,20946233,195896
OK,92,47,1033,92,2014-08-02T23:40:00,0,20946682,195896
OK,92,47,1033,92,2014-08-02T23:45:00,0,20947131,195896
OK,92,47,1033,92,2014-08-02T23:50:00,0,20947580,195896
OK,92,47,1033,92,2014-08-02T23:55:00,0,20948029,195896
OK,92,47,1033,92,2014-08-03T00:00:00,0,20948478,195896
OK,92,47,1033,92,2014-08-03T00:05:00,0,20948927,195896
OK,92,47,1033,92,2014-08-03T00:10:00,0,20949375,195896
OK,92,47,1033,92,2014-08-03T00:15:00,0,20949824,195896
OK,92,47,1033,92,2014-08-03T00:20:00,0,20950273,195896
OK,92,47,1033,92,2014-08-03T00:25:00,0,20950722,195896
OK,92,47,1033,92,2014-08-03T00:30:00,0,20951171,195896
OK,92,47,1033,92,2014-08-03T00:35:00,0,20951620,195896
OK,92,47,1033,92,2014-08-03T00:40:00,0,20952069,195896
OK,92,47,1033,92,2014-08-03T00:45:00,0,20952518,195896
OK,92,47,1033,92,2014-08-03T00:50:00,0,20952967,195896
OK,92,47,1033,92,2014-08-03T00:55:00,0,20953416,195896
OK,92,47,1033,92,2014-08-03T01:00:00,0,20953865,195896
OK,92,47,1033,92,2014-08-03T01:05:00,0,20954314,195896
OK,92,47,1033,92,2014-08-03T01:10:00,0,20954763,195896
OK,92,47,1033,92,2014-08-03T01:15:00,0,20955212,195896
OK,92,47,1033,92,2014-08-03T01:20:00,0,20955661,195896
OK,92,47,1033,92,2014-08-03T01:25:00,0,20956110,195896
OK,92,47,1033,92,2014-08-03T01:30:00,0,20956559,195896
OK,92,47,1033,92,2014-08-03T01:35:00,0,20957008,195896
OK,92,47,1033,92,2014-08-03T01:40:00,0,20957457,195896
OK,92,47,1033,92,2014-08-03T01:45:00,0,20957906,195896
OK,92,47,1033,92,2014-08-03T01:50:00,0,20958355,195896
OK,92,47,1033,92,2014-08-03T01:55:00,0,20958804,195896
OK,92,47,1033,92,2014-08-03T02:00:00,0,20959253,195896
OK,92,47,1033,92,2014-08-03T02:05:00,0,20959702,195896
OK,92,47,1033,92,2014-08-03T02:10:00,0,20960151,195896
OK,92,47,1033,92,2014-08-03T02:15:00,0,20960600,195896
OK,92,47,1033,92,2014-08-03T02:20:00,0,20961049,195896
OK,92,47,1033,92,2014-08-03T02:25:00,0,20961498,195896
OK,92,47,1033,92,2014-08-03T02:30:00,0,20961947,195896
OK,92,47,1033,92,2014-08-03T02:35:00,0,20962396,195896
OK,92,47,1033,92,2014-08-03T02:40:00,0,20962845,195896
OK,92,47,1033,92,2014-08-03T02:45:00,0,20963294,195896
OK,92,47,1033,92,2014-08-03T02:50:00,0,20963743,195896
OK,92,47,1033,92,2014-08-03T02:55:00,0,20964192,195896